ITAMSAT (IO-26)

Last updated on Tue Dec 03 2024 00:03:02 GMT+0000 (Coordinated Universal Time)

1 22826U 93061D 24337.39988813 .00000537 00000+0 22108-3 0 9997 2 22826 98.7613 31.6218 0007938 294.4056 65.6298 14.31070760626957
UTC large
Height (km)
Speed (km/s)
/
Latitude / Longitude
Inclination (degrees)
Orbital Period (minutes)
Azimuth
Elevation
Range (km)
Doppler Factor

Next 0 passes for location: London (51.5072 / 0.1276)

Sorry there are no passes over London.